Weather History for KAUW - June, 2013

Change the Weather History Date:

Friday, June 28, 2013

  Actual Average Record
Temperature  
Mean Temperature 68 °F 68 °F  
Max Temperature 74 °F 79 °F 96 °F (1931)
Min Temperature 61 °F 57 °F 42 °F (1911)
Degree Days  
Heating Degree Days 0 1  
Month to date heating degree days 86 85  
Since 1 June heating degree days 86 85  
Since 1 July heating degree days 8252 8245  
Cooling Degree Days 3 4  
Month to date cooling degree days 81 74  
Year to date cooling degree days 118 93  
Since 1 June cooling degree days 81 74  
Growing Degree Days 18 (Base 50)    
Moisture  
Dew Point 61 °F    
Average Humidity 80    
Maximum Humidity 93    
Minimum Humidity 66    
Precipitation  
Precipitation 0.14 in 0.13 in 1.56 in (1942)
Month to date precipitation 5.61 4.05  
Year to date precipitation 20.08 13.96  
Snow  
Snow 0.00 in 0.00 in 0.00 in ()
Month to date snowfall 0.0 0.0  
Since 1 June snowfall 0.0  
Since 1 July snowfall 78.8 59.6  
Snow Depth 0.00 in    
Sea Level Pressure  
Sea Level Pressure 29.67 in    
Wind  
Wind Speed 7 mph (NW)    
Max Wind Speed 20 mph    
Max Gust Speed 25 mph    
Visibility 9 miles    
Events Rain , Thunderstorm    
T = Trace of Precipitation, MM = Missing Value Source: NWS Daily Summary

Daily Weather History Graph

Daily Weather History Graph

Search for Another Location

Airport or City:

Trip Planner

Search our weather history database for the weather conditions in past years. The results will help you decide how hot, cold, wet, or windy it might be!

Date:

Astronomy

Jun. 28, 2013 Rise Set
Actual Time 5:14 AM CDT 8:49 PM CDT
Civil Twilight 4:37 AM CDT 9:26 PM CDT
Nautical Twilight 3:47 AM CDT 10:15 PM CDT
Astronomical Twilight 2:43 AM CDT 11:20 PM CDT
Moon 11:59 PM CDT (6/28) 11:39 AM CDT (6/28)
Length of Visible Light 16h 48m
Length of Day
15h 34m
Waning Gibbous, 66% of the Moon is Illuminated
Jun 28
Waning Gibbous
Jun 29
Last Quarter
Jul 8
New
Jul 15
First Quarter
Jul 22
Full

Hourly Weather History & Observations

Time (CDT) Temp. Dew Point Humidity Pressure Visibility Wind Dir Wind Speed Gust Speed Precip Events Conditions
12:54 AM 64.0 °F 60.1 °F 87% 29.72 in 10.0 mi Calm Calm - N/A   Clear
1:54 AM 66.0 °F 59.0 °F 78% 29.70 in 10.0 mi NW 4.6 mph - N/A   Clear
2:54 AM 66.0 °F 57.0 °F 73% 29.69 in 10.0 mi NW 5.8 mph - N/A   Clear
3:54 AM 64.0 °F 55.9 °F 75% 29.69 in 10.0 mi WNW 8.1 mph - N/A   Clear
4:54 AM 62.1 °F 55.9 °F 80% 29.68 in 10.0 mi WNW 6.9 mph - N/A   Clear
5:54 AM 62.1 °F 57.0 °F 84% 29.69 in 10.0 mi WNW 8.1 mph - N/A   Scattered Clouds
6:54 AM 63.0 °F 57.9 °F 84% 29.69 in 10.0 mi WNW 8.1 mph - N/A   Mostly Cloudy
7:54 AM 64.9 °F 59.0 °F 81% 29.68 in 10.0 mi WNW 10.4 mph - N/A   Overcast
8:54 AM 66.9 °F 60.1 °F 79% 29.66 in 10.0 mi NW 8.1 mph - N/A   Mostly Cloudy
9:24 AM 68.0 °F 59.0 °F 73% 29.66 in 10.0 mi NW 6.9 mph - N/A   Overcast
9:54 AM 68.0 °F 59.0 °F 73% 29.66 in 10.0 mi WNW 9.2 mph - N/A   Overcast
10:01 AM 68.0 °F 59.0 °F 73% 29.66 in 10.0 mi WNW 9.2 mph - N/A   Overcast
10:54 AM 69.1 °F 57.9 °F 68% 29.66 in 10.0 mi NNW 11.5 mph - N/A   Overcast
11:40 AM 68.0 °F 59.0 °F 73% 29.67 in 10.0 mi NW 19.6 mph 25.3 mph N/A   Overcast
11:50 AM 64.4 °F 62.6 °F 94% 29.67 in 1.8 mi NW 12.7 mph - 0.04 in Rain Heavy Rain
11:54 AM 64.0 °F 61.0 °F 90% 29.68 in 1.2 mi NW 4.6 mph 17.3 mph 0.06 in Rain Heavy Rain
12:02 PM 64.4 °F 62.6 °F 94% 29.67 in 3.0 mi NNW 5.8 mph - 0.01 in Rain Light Rain
12:54 PM 72.0 °F 63.0 °F 73% 29.66 in 10.0 mi NNW 9.2 mph - 0.01 in   Mostly Cloudy
1:49 PM 71.6 °F 60.8 °F 69% 29.65 in 10.0 mi NNW 12.7 mph 18.4 mph N/A   Overcast
1:54 PM 70.0 °F 61.0 °F 73% 29.65 in 10.0 mi NW 9.2 mph 19.6 mph 0.00 in Rain Light Rain
2:11 PM 71.6 °F 60.8 °F 69% 29.65 in 10.0 mi NW 10.4 mph 17.3 mph 0.00 in   Overcast
2:54 PM 69.1 °F 62.1 °F 78% 29.65 in 10.0 mi NNW 9.2 mph - 0.01 in Rain Light Rain
3:54 PM 73.0 °F 61.0 °F 66% 29.65 in 10.0 mi NW 10.4 mph 18.4 mph 0.00 in   Scattered Clouds
4:54 PM 68.0 °F 64.0 °F 87% 29.66 in 8.0 mi NW 9.2 mph - 0.02 in Rain Light Rain
5:14 PM 69.8 °F 64.4 °F 83% 29.66 in 10.0 mi North 8.1 mph - 0.00 in   Overcast
5:28 PM 69.8 °F 62.6 °F 78% 29.66 in 10.0 mi NW 8.1 mph - 0.00 in   Mostly Cloudy
5:54 PM 71.1 °F 63.0 °F 75% 29.65 in 10.0 mi NW 8.1 mph - 0.00 in   Partly Cloudy
6:07 PM 71.6 °F 62.6 °F 73% 29.66 in 10.0 mi NW 8.1 mph - N/A Thunderstorm Mostly Cloudy
6:31 PM 66.2 °F 60.8 °F 83% 29.66 in 4.0 mi NE 8.1 mph 18.4 mph 0.02 in Rain Rain
6:54 PM 64.9 °F 62.1 °F 90% 29.67 in 10.0 mi North 3.5 mph - 0.04 in Rain Light Rain
7:54 PM 66.9 °F 63.0 °F 87% 29.68 in 10.0 mi North 4.6 mph - 0.00 in   Mostly Cloudy
8:54 PM 66.9 °F 64.0 °F 90% 29.70 in 10.0 mi North 3.5 mph - N/A   Overcast
9:54 PM 66.0 °F 62.1 °F 87% 29.71 in 10.0 mi North 4.6 mph - N/A   Overcast
10:54 PM 64.0 °F 61.0 °F 90% 29.70 in 10.0 mi North 3.5 mph - N/A   Partly Cloudy
11:54 PM 63.0 °F 60.1 °F 90% 29.71 in 10.0 mi North 4.6 mph - N/A   Clear